CW4517 Weather Reports


Display with metric or nautical units.
time (UTC)temp
F
wind
direction
speed
MPH
gust
MPH
rain 1hr
in
rain 24hr
in
rain mn
in
humidity
%
barometer
mb
20260509091254 49 175 2.0 6.0 0.00 0.00 0.00 91 1001.3
20260509090749 49 215 3.0 5.0 0.00 0.00 0.00 90 1001.3
20260509090242 49 204 2.0 5.0 0.00 0.00 0.00 90 1001.3
20260509085737 49 209 2.0 6.0 0.00 0.00 0.00 90 1001.3
20260509085231 49 203 2.0 6.0 0.00 0.00 0.00 90 1001.3
20260509084719 49 225 3.0 6.0 0.00 0.00 0.00 90 1001.3
20260509084218 49 211 3.0 7.0 0.00 0.00 0.00 90 1001.3
20260509084203 50 210 3.0 7.0 0.00 0.00 0.00 90 1001.3
20260509083206 50 221 3.0 6.0 0.00 0.00 0.00 90 1001.2
20260509082919 50 200 2.0 6.0 0.00 0.00 0.00 90 1001.2
20260509082413 50 211 2.0 5.0 0.00 0.00 0.00 90 1001.2
20260509081648 50 209 3.0 5.0 0.00 0.00 0.00 90 1001.3
20260509081144 49 222 3.0 7.0 0.00 0.00 0.00 90 1001.3
20260509080637 49 233 3.0 7.0 0.00 0.00 0.00 90 1001.3
20260509080132 49 215 2.0 5.0 0.00 0.00 0.00 90 1001.4
20260509075624 49 225 2.0 5.0 0.00 0.00 0.00 90 1001.4
20260509075119 49 207 2.0 5.0 0.00 0.00 0.00 90 1001.4
20260509074829 49 202 3.0 6.0 0.00 0.00 0.00 90 1001.8
20260509074107 49 216 3.0 6.0 0.00 0.00 0.00 89 1001.8
20260509073600 49 231 3.0 6.0 0.00 0.00 0.00 89 1001.8
20260509073053 49 221 3.0 7.0 0.00 0.00 0.00 89 1001.8
20260509072548 50 209 3.0 7.0 0.00 0.00 0.00 89 1001.8
20260509072038 50 225 3.0 6.0 0.00 0.00 0.00 89 1001.8
20260509071535 50 209 3.0 6.0 0.00 0.00 0.00 89 1001.8
20260509071029 50 223 3.0 6.0 0.00 0.00 0.00 89 1001.8
20260509070526 50 219 3.0 5.0 0.00 0.00 0.00 88 1001.8
20260509070026 50 223 3.0 6.0 0.00 0.00 0.00 88 1001.9
20260509065528 50 194 4.0 8.0 0.00 0.00 0.00 88 1001.9
20260509065027 50 225 4.0 8.0 0.00 0.00 0.00 88 1001.9
20260509064527 50 225 3.0 6.0 0.00 0.00 0.00 88 1002.1
20260509064028 51 220 3.0 5.0 0.00 0.00 0.00 88 1002.1
20260509063527 51 215 3.0 6.0 0.00 0.00 0.00 88 1002.1
20260509063251 51 225 3.0 6.0 0.00 0.00 0.00 87 1002.3
20260509062527 51 238 2.0 6.0 0.00 0.00 0.00 87 1002.3
20260509062027 51 226 2.0 5.0 0.00 0.00 0.00 87 1002.3
20260509061529 51 221 3.0 5.0 0.00 0.00 0.00 87 1002.4
20260509061031 51 221 3.0 8.0 0.00 0.00 0.00 87 1002.4
20260509060524 51 205 3.0 8.0 0.00 0.00 0.00 87 1002.4
20260509060012 51 224 4.0 7.0 0.00 0.00 0.00 87 1002.5
20260509055458 51 228 4.0 7.0 0.00 0.00 0.00 86 1002.5
20260509055217 52 217 3.0 7.0 0.00 0.00 0.00 86 1002.5
20260509054443 52 225 4.0 7.0 0.00 0.00 0.00 86 1002.5
20260509053943 52 232 3.0 6.0 0.00 0.00 0.00 86 1002.5
20260509053440 52 220 4.0 7.0 0.00 0.00 0.00 86 1002.6
20260509052940 52 223 4.0 8.0 0.00 0.00 0.00 86 1002.6
20260509052441 53 230 4.0 8.0 0.00 0.00 0.00 85 1002.6
20260509051940 53 229 4.0 7.0 0.00 0.00 0.00 85 1002.4
20260509051442 53 219 4.0 8.0 0.00 0.00 0.00 86 1002.4
20260509051438 53 227 4.0 9.0 0.00 0.00 0.00 86 1002.4
20260509050439 53 192 4.0 9.0 0.00 0.00 0.00 86 1002.8
20260509045939 53 211 5.0 9.0 0.00 0.00 0.00 85 1002.8
20260509045438 53 221 5.0 9.0 0.00 0.00 0.00 85 1002.8
20260509044938 53 215 5.0 8.0 0.00 0.00 0.00 85 1002.9
20260509044433 54 223 4.0 8.0 0.00 0.00 0.00 85 1002.9
20260509043920 54 231 3.0 7.0 0.00 0.00 0.00 85 1002.9
20260509043408 54 220 4.0 7.0 0.00 0.00 0.00 84 1002.9
20260509042856 54 206 4.0 8.0 0.00 0.00 0.00 84 1002.9
20260509042354 54 192 4.0 8.0 0.00 0.00 0.00 84 1002.9
20260509041849 54 220 4.0 8.0 0.00 0.00 0.00 84 1002.9
20260509041602 54 214 4.0 8.0 0.00 0.00 0.00 84 1002.9
20260509040837 55 215 4.0 9.0 0.00 0.00 0.00 84 1002.9
20260509040328 55 227 5.0 10.0 0.00 0.00 0.00 83 1003.1
20260509035824 55 189 5.0 9.0 0.00 0.00 0.00 83 1003.1
20260509035319 55 223 4.0 9.0 0.00 0.00 0.00 83 1003.1
20260509034813 55 236 4.0 9.0 0.00 0.00 0.00 82 1003.3
20260509034534 55 220 4.0 8.0 0.00 0.00 0.00 82 1003.3
20260509033800 55 224 3.0 7.0 0.00 0.00 0.00 82 1003.3
20260509033254 56 221 4.0 7.0 0.00 0.00 0.00 81 1003.1
20260509032744 56 215 4.0 7.0 0.00 0.00 0.00 81 1003.1
20260509032242 56 207 4.0 7.0 0.00 0.00 0.00 80 1003.1
20260509032004 56 218 3.0 7.0 0.00 0.00 0.00 80 1003.1
20260509031450 56 201 4.0 8.0 0.00 0.00 0.00 79 1003.1
20260509030724 56 151 4.0 8.0 0.00 0.00 0.00 78 1003.1
20260509030214 56 217 4.0 8.0 0.00 0.00 0.00 77 1003.3
20260509025712 57 205 3.0 7.0 0.00 0.00 0.00 76 1003.3
20260509025206 57 172 4.0 7.0 0.00 0.00 0.00 76 1003.3
20260509024700 57 181 4.0 7.0 0.00 0.00 0.00 76 1003.3
20260509024154 57 196 3.0 7.0 0.00 0.00 0.00 76 1003.3
20260509023648 57 219 3.0 6.0 0.00 0.00 0.00 76 1003.3
20260509023403 57 203 3.0 6.0 0.00 0.00 0.00 76 1003.3
20260509022632 57 199 3.0 6.0 0.00 0.00 0.00 75 1003.3
20260509022131 57 180 3.0 6.0 0.00 0.00 0.00 75 1003.3
20260509021844 58 254 3.0 6.0 0.00 0.00 0.00 75 1003.1
20260509021122 58 208 3.0 4.0 0.00 0.00 0.00 75 1003.1
20260509020622 58 188 3.0 6.0 0.00 0.00 0.00 75 1003.1
20260509020122 58 227 3.0 6.0 0.00 0.00 0.00 75 1002.9
20260509015622 58 232 3.0 9.0 0.00 0.00 0.00 74 1002.9
20260509015355 58 226 4.0 9.0 0.00 0.00 0.00 74 1002.9
20260509014621 59 180 4.0 8.0 0.00 0.00 0.00 74 1002.8
20260509014122 59 205 4.0 9.0 0.00 0.00 0.00 74 1002.8
20260509013851 59 236 5.0 9.0 0.00 0.00 0.00 74 1002.8
20260509013345 59 212 5.0 9.0 0.00 0.00 0.00 73 1002.7
20260509012849 59 184 4.0 11.0 0.00 0.00 0.00 73 1002.7
20260509012122 60 240 4.0 11.0 0.00 0.00 0.00 73 1002.7
20260509011622 60 209 4.0 8.0 0.00 0.00 0.00 72 1002.9
20260509011122 60 212 4.0 8.0 0.00 0.00 0.00 72 1002.9
20260509010621 60 225 4.0 7.0 0.00 0.00 0.00 71 1002.9
20260509010122 61 210 4.0 8.0 0.00 0.00 0.00 70 1002.8
20260509005615 61 190 3.0 8.0 0.00 0.00 0.00 69 1002.8
20260509005104 61 169 3.0 5.0 0.00 0.00 0.00 68 1002.8
20260509004552 62 170 2.0 5.0 0.00 0.00 0.00 67 1002.7
20260509004041 62 207 2.0 4.0 0.00 0.00 0.00 66 1002.7
20260509003529 62 199 2.0 4.0 0.00 0.00 0.00 65 1002.7
20260509003015 62 179 3.0 7.0 0.00 0.00 0.00 63 1002.7
20260509002725 63 239 3.0 7.0 0.00 0.00 0.00 63 1002.7
20260509002214 63 234 3.0 7.0 0.00 0.00 0.00 63 1002.8
20260509001441 63 224 4.0 7.0 0.00 0.00 0.00 63 1002.8
20260509000940 63 225 4.0 9.0 0.00 0.00 0.00 63 1002.8
20260509000435 64 232 4.0 10.0 0.00 0.00 0.00 63 1002.8
20260508235927 64 220 4.0 10.0 0.00 0.00 0.00 63 1002.8
20260508235421 64 244 5.0 10.0 0.00 0.00 0.00 63 1002.8
20260508234915 64 238 4.0 10.0 0.00 0.00 0.00 64 1002.8
20260508234410 64 250 4.0 8.0 0.00 0.00 0.00 65 1002.8
20260508233859 64 245 5.0 9.0 0.00 0.00 0.00 65 1002.8
20260508233357 64 219 5.0 9.0 0.00 0.00 0.00 65 1002.9
20260508232852 64 241 4.0 8.0 0.00 0.00 0.00 64 1002.9
20260508232346 64 230 4.0 9.0 0.00 0.00 0.00 65 1002.9
20260508231840 64 248 5.0 9.0 0.00 0.00 0.00 65 1002.9
20260508231334 64 225 5.0 10.0 0.00 0.00 0.00 65 1002.9
20260508230829 64 223 6.0 13.0 0.00 0.00 0.00 63 1002.9
20260508230323 65 0 7.0 13.0 0.00 0.00 0.00 63 1002.9
20260508225816 65 219 6.0 14.0 0.00 0.00 0.00 64 1002.9
20260508225309 65 216 5.0 13.0 0.00 0.00 0.00 63 1002.9
20260508224803 65 217 6.0 11.0 0.00 0.00 0.00 62 1002.9
20260508224258 65 227 5.0 11.0 0.00 0.00 0.00 63 1002.9
20260508224012 65 242 5.0 10.0 0.00 0.00 0.00 64 1002.9
20260508223245 65 209 5.0 10.0 0.00 0.00 0.00 63 1002.9
20260508223005 65 257 5.0 10.0 0.00 0.00 0.00 63 1002.9
20260508222233 65 244 4.0 8.0 0.00 0.00 0.00 62 1002.9
20260508221729 65 221 5.0 13.0 0.00 0.00 0.00 61 1003.0
20260508221225 65 209 5.0 13.0 0.00 0.00 0.00 61 1003.0
20260508220725 65 234 5.0 10.0 0.00 0.00 0.00 61 1003.0
20260508220223 65 252 5.0 10.0 0.00 0.00 0.00 60 1002.9
20260508215723 65 231 4.0 10.0 0.00 0.00 0.00 61 1002.9
20260508215222 65 232 5.0 9.0 0.00 0.00 0.00 60 1002.9
20260508214940 65 173 5.0 9.0 0.00 0.00 0.00 60 1003.0
20260508214225 65 245 5.0 9.0 0.00 0.00 0.00 61 1003.0
20260508213720 65 164 5.0 12.0 0.00 0.00 0.00 61 1003.0
20260508213218 65 226 4.0 12.0 0.00 0.00 0.00 60 1003.2
20260508212719 65 261 4.0 9.0 0.00 0.00 0.00 61 1003.2
20260508212219 65 197 5.0 11.0 0.00 0.00 0.00 59 1003.2
20260508211936 66 238 4.0 11.0 0.00 0.00 0.00 58 1003.3
20260508211215 66 240 4.0 8.0 0.00 0.00 0.00 61 1003.3
20260508210714 66 258 4.0 8.0 0.00 0.00 0.00 59 1003.3
20260508210215 66 200 4.0 9.0 0.00 0.00 0.00 58 1003.4
20260508205715 66 229 3.0 10.0 0.00 0.00 0.00 59 1003.4
20260508205214 66 271 3.0 10.0 0.00 0.00 0.00 61 1003.4
20260508205159 65 186 4.0 7.0 0.00 0.00 0.00 61 1003.4
20260508204213 65 190 3.0 7.0 0.00 0.00 0.00 62 1003.4
20260508203700 65 196 2.0 5.0 0.00 0.00 0.00 63 1003.4
20260508203158 65 162 2.0 6.0 0.00 0.00 0.00 62 1003.8
20260508202659 64 149 3.0 9.0 0.00 0.00 0.00 63 1003.8
20260508202424 64 232 3.0 9.0 0.00 0.00 0.00 63 1003.8
20260508201658 65 223 3.0 9.0 0.00 0.00 0.00 62 1003.9
20260508201202 65 219 3.0 9.0 0.00 0.00 0.00 62 1003.9
20260508201141 65 192 3.0 7.0 0.00 0.00 0.00 63 1003.9
20260508200158 65 170 3.0 9.0 0.00 0.00 0.00 61 1004.2
20260508195700 65 223 2.0 8.0 0.00 0.00 0.00 60 1004.2
20260508195155 65 199 2.0 6.0 0.00 0.00 0.00 61 1004.2
20260508194646 65 150 3.0 8.0 0.00 0.00 0.00 59 1004.4
20260508194411 65 225 3.0 8.0 0.00 0.00 0.00 60 1004.4
20260508193637 65 253 2.0 7.0 0.00 0.00 0.00 61 1004.4
20260508193130 65 122 2.0 5.0 0.00 0.00 0.00 62 1004.4
20260508192627 65 272 2.0 5.0 0.00 0.00 0.00 59 1004.4
20260508192120 65 194 3.0 5.0 0.00 0.00 0.00 61 1004.4
20260508191613 65 184 3.0 6.0 0.00 0.00 0.00 62 1004.5
20260508191103 65 135 3.0 6.0 0.00 0.00 0.00 63 1004.5
20260508190826 65 233 2.0 5.0 0.00 0.00 0.00 64 1004.5
20260508190320 64 146 3.0 6.0 0.00 0.00 0.00 63 1004.7
20260508185814 64 107 3.0 7.0 0.00 0.00 0.00 63 1004.7
20260508185044 64 200 4.0 7.0 0.00 0.00 0.00 64 1004.7
20260508184533 65 257 3.0 8.0 0.00 0.00 0.00 61 1005.0
20260508184030 65 167 3.0 8.0 0.00 0.00 0.00 61 1005.0
20260508183524 65 96 3.0 5.0 0.00 0.00 0.00 61 1005.0
20260508183018 64 194 3.0 9.0 0.00 0.00 0.00 62 1005.0
20260508182737 64 161 3.0 9.0 0.00 0.00 0.00 62 1005.0
20260508182001 64 198 3.0 7.0 0.00 0.00 0.00 61 1005.0
20260508181500 64 117 2.0 4.0 0.00 0.00 0.00 61 1005.2
20260508180955 64 117 2.0 6.0 0.00 0.00 0.00 63 1005.2
20260508180444 63 152 4.0 6.0 0.00 0.00 0.00 60 1005.4
20260508175943 63 203 3.0 6.0 0.00 0.00 0.00 61 1005.4
20260508175659 64 227 2.0 5.0 0.00 0.00 0.00 62 1005.4
20260508174931 64 249 2.0 6.0 0.00 0.00 0.00 62 1005.5
20260508174420 64 150 3.0 6.0 0.00 0.00 0.00 60 1005.5
20260508173919 64 69 3.0 6.0 0.00 0.00 0.00 59 1005.5
20260508173413 64 130 3.0 8.0 0.00 0.00 0.00 62 1005.9
20260508173127 64 164 2.0 8.0 0.00 0.00 0.00 63 1005.9
20260508172400 64 121 2.0 4.0 0.00 0.00 0.00 63 1005.9
20260508171849 64 223 2.0 6.0 0.00 0.00 0.00 65 1006.1
20260508171347 63 250 2.0 6.0 0.00 0.00 0.00 64 1006.1
20260508170843 63 217 2.0 6.0 0.00 0.00 0.00 66 1006.1
20260508170336 62 189 3.0 6.0 0.00 0.00 0.00 66 1006.5
20260508170053 62 138 3.0 6.0 0.00 0.00 0.00 68 1006.5
20260508165324 61 109 3.0 6.0 0.00 0.00 0.00 69 1006.5
20260508165040 61 238 2.0 6.0 0.00 0.00 0.00 68 1006.6
20260508164313 61 170 2.0 6.0 0.00 0.00 0.00 70 1006.6
20260508163802 60 207 3.0 7.0 0.00 0.00 0.00 70 1006.6
20260508163513 60 217 3.0 7.0 0.00 0.00 0.00 70 1006.9
20260508162737 60 202 2.0 6.0 0.00 0.00 0.00 71 1006.9
20260508162232 60 206 2.0 6.0 0.00 0.00 0.00 70 1006.9
20260508161731 60 171 2.0 5.0 0.00 0.00 0.00 71 1007.0
20260508161232 60 138 2.0 5.0 0.00 0.00 0.00 71 1007.0
20260508160735 60 201 2.0 5.0 0.00 0.00 0.00 71 1007.0
20260508160234 60 157 2.0 5.0 0.00 0.00 0.00 70 1007.0
20260508155731 60 207 2.0 4.0 0.00 0.00 0.00 72 1007.0
20260508155457 60 139 2.0 5.0 0.00 0.00 0.00 72 1007.0
20260508154731 60 221 2.0 7.0 0.00 0.00 0.00 71 1007.1
20260508154230 60 178 2.0 7.0 0.00 0.00 0.00 71 1007.1
20260508153728 60 231 2.0 6.0 0.00 0.00 0.00 70 1007.1
20260508153224 60 209 2.0 4.0 0.00 0.00 0.00 72 1007.2
20260508152717 59 209 2.0 7.0 0.00 0.00 0.00 73 1007.2
20260508152211 59 190 2.0 7.0 0.00 0.00 0.00 72 1007.2
20260508151659 59 140 2.0 6.0 0.00 0.00 0.00 72 1007.2
20260508151159 59 211 3.0 7.0 0.00 0.00 0.00 72 1007.2
20260508150647 58 202 3.0 8.0 0.00 0.00 0.00 73 1007.2
20260508150147 59 238 3.0 8.0 0.00 0.00 0.00 71 1007.4
20260508145640 59 230 3.0 8.0 0.00 0.00 0.00 73 1007.4
20260508145133 58 190 3.0 8.0 0.00 0.00 0.00 73 1007.4
20260508144629 58 217 3.0 7.0 0.00 0.00 0.00 73 1007.3
20260508144117 58 222 2.0 7.0 0.00 0.00 0.00 75 1007.3
20260508143615 57 155 2.0 5.0 0.00 0.00 0.00 76 1007.3
20260508143111 57 223 3.0 5.0 0.00 0.00 0.00 77 1007.4
20260508142827 56 244 2.0 5.0 0.00 0.00 0.00 78 1007.4
20260508142319 56 198 2.0 6.0 0.00 0.00 0.00 79 1007.4
20260508141547 56 196 2.0 6.0 0.00 0.00 0.00 80 1007.6
20260508141312 55 144 3.0 7.0 0.00 0.00 0.00 82 1007.6
20260508140805 55 206 3.0 7.0 0.00 0.00 0.00 81 1007.6
20260508140033 55 232 2.0 5.0 0.00 0.00 0.00 83 1007.6
20260508135527 55 167 2.0 7.0 0.00 0.00 0.00 84 1007.6
20260508135022 54 226 2.0 7.0 0.00 0.00 0.00 85 1007.6
20260508134516 53 225 3.0 7.0 0.00 0.00 0.00 85 1007.6
20260508134006 53 188 3.0 8.0 0.00 0.00 0.00 85 1007.6
20260508133504 53 200 3.0 8.0 0.00 0.00 0.00 85 1007.6
20260508132958 53 232 2.0 5.0 0.00 0.00 0.00 85 1007.5
20260508132450 53 227 2.0 5.0 0.00 0.00 0.00 86 1007.5
20260508131945 52 148 2.0 3.0 0.00 0.00 0.00 86 1007.6
20260508131435 52 123 2.0 4.0 0.00 0.00 0.00 87 1007.6
20260508130934 51 130 2.0 4.0 0.00 0.00 0.00 87 1007.6
20260508130656 51 162 1.0 4.0 0.00 0.00 0.00 87 1007.6
20260508125933 51 162 1.0 4.0 0.00 0.00 0.00 88 1007.6
20260508125432 50 107 1.0 3.0 0.00 0.00 0.00 88 1007.6
20260508124931 50 154 1.0 3.0 0.00 0.00 0.00 87 1007.6
20260508124429 50 128 1.0 3.0 0.00 0.00 0.00 87 1007.6
20260508123929 49 120 1.0 3.0 0.00 0.00 0.00 88 1007.6
20260508123429 49 173 0.0 3.0 0.00 0.00 0.00 88 1007.5
20260508122929 49 157 1.0 4.0 0.00 0.00 0.00 87 1007.5
20260508122430 49 149 2.0 4.0 0.00 0.00 0.00 87 1007.5
20260508121926 49 145 1.0 4.0 0.00 0.00 0.00 87 1007.6
20260508121427 49 147 1.0 6.0 0.00 0.00 0.00 87 1007.6
20260508120927 49 182 2.0 7.0 0.00 0.00 0.00 87 1007.6
20260508120424 49 214 2.0 7.0 0.00 0.00 0.00 87 1007.4
20260508115928 48 200 2.0 6.0 0.00 0.00 0.00 87 1007.4
20260508115648 48 216 2.0 5.0 0.00 0.00 0.00 87 1007.4
20260508114922 48 174 2.0 5.0 0.00 0.00 0.00 87 1007.5
20260508114409 48 200 1.0 4.0 0.00 0.00 0.00 87 1007.5
20260508113857 48 204 0.0 3.0 0.00 0.00 0.00 87 1007.5
20260508113345 48 173 1.0 3.0 0.00 0.00 0.00 86 1007.2
20260508112835 48 173 1.0 3.0 0.00 0.00 0.00 87 1007.2
20260508112321 48 173 1.0 3.0 0.00 0.00 0.00 86 1007.2
20260508111809 48 185 1.0 3.0 0.00 0.00 0.00 86 1007.1
20260508111258 48 204 0.0 2.0 0.00 0.00 0.00 86 1007.1
20260508110745 48 204 0.0 2.0 0.00 0.00 0.00 85 1007.1
20260508110511 48 204 0.0 0.0 0.00 0.00 0.00 85 1007.2
20260508105738 48 204 0.0 2.0 0.00 0.00 0.00 85 1007.2
20260508105231 48 204 1.0 2.0 0.00 0.00 0.00 85 1007.2
20260508104726 48 204 1.0 3.0 0.00 0.00 0.00 85 1007.2
20260508104212 47 245 1.0 3.0 0.00 0.00 0.00 85 1007.2
20260508103713 47 245 0.0 2.0 0.00 0.00 0.00 85 1007.2
20260508103208 47 245 0.0 1.0 0.00 0.00 0.00 85 1007.3
20260508102701 47 245 0.0 1.0 0.00 0.00 0.00 84 1007.3
20260508102157 47 245 0.0 0.0 0.00 0.00 0.00 84 1007.3
20260508101642 47 245 0.0 0.0 0.00 0.00 0.00 84 1007.5
20260508101413 47 245 0.0 0.0 0.00 0.00 0.00 84 1007.5
20260508101118 47 245 0.0 0.0 0.00 0.00 0.00 83 1007.5
20260508100131 48 245 0.0 0.0 0.00 0.00 0.00 83 1007.2
20260508095626 48 245 0.0 1.0 0.00 0.00 0.00 83 1007.2
20260508095116 48 245 0.0 1.0 0.00 0.00 0.00 83 1007.2
20260508094614 48 245 0.0 1.0 0.00 0.00 0.00 83 1007.6
20260508094101 48 245 1.0 2.0 0.00 0.00 0.00 83 1007.6
20260508093600 48 245 1.0 2.0 0.00 0.00 0.00 83 1007.6
20260508093057 48 223 1.0 2.0 0.00 0.00 0.00 83 1007.5
20260508092545 48 223 0.0 2.0 0.00 0.00 0.00 83 1007.5
20260508092044 48 223 1.0 3.0 0.00 0.00 0.00 83 1007.5